TimeCDT,TemperatureF,Dew PointF,Humidity,Sea Level PressureIn,VisibilityMPH,Wind Direction,Wind SpeedMPH,Gust SpeedMPH,PrecipitationIn,Events,Conditions,WindDirDegrees,DateUTC
12:53 AM,70.0,66.0,87,30.01,10.0,Calm,Calm,-,N/A,,Clear,0,2013-08-22 05:53:00
1:53 AM,69.1,64.9,87,30.01,9.0,Calm,Calm,-,N/A,,Clear,0,2013-08-22 06:53:00
2:53 AM,66.9,64.9,93,30.00,10.0,Variable,3.5,-,0.00,Rain,Light Rain,0,2013-08-22 07:53:00
3:01 AM,66.2,62.6,88,30.04,1.2,NW,4.6,-,0.00,,Partly Cloudy,320,2013-08-22 08:01:00
3:14 AM,64.4,62.6,94,30.04,0.5,Calm,Calm,-,0.00,Fog,Fog,0,2013-08-22 08:14:00
3:20 AM,64.4,64.4,100,30.04,1.2,North,3.5,-,0.00,,Partly Cloudy,360,2013-08-22 08:20:00
3:24 AM,64.4,64.4,100,30.05,0.8,Calm,Calm,-,0.00,,Mist,0,2013-08-22 08:24:00
3:53 AM,64.9,64.0,97,30.02,0.2,NE,3.5,-,0.00,Fog,Fog,50,2013-08-22 08:53:00
4:01 AM,66.2,64.4,94,30.06,1.5,Calm,Calm,-,N/A,,Scattered Clouds,0,2013-08-22 09:01:00
4:06 AM,64.4,64.4,100,30.06,2.5,Calm,Calm,-,N/A,,Scattered Clouds,0,2013-08-22 09:06:00
4:10 AM,64.4,64.4,100,30.07,1.8,Calm,Calm,-,N/A,,Partly Cloudy,0,2013-08-22 09:10:00
4:13 AM,64.4,62.6,94,30.07,0.8,SW,3.5,-,N/A,,Mist,230,2013-08-22 09:13:00
4:53 AM,63.0,61.0,93,30.03,0.2,Calm,Calm,-,N/A,Fog,Fog,0,2013-08-22 09:53:00
5:53 AM,63.0,62.1,97,30.05,1.0,WNW,3.5,-,N/A,,Overcast,300,2013-08-22 10:53:00
5:58 AM,62.6,62.6,100,30.09,2.5,WNW,3.5,-,N/A,,Overcast,300,2013-08-22 10:58:00
6:05 AM,62.6,62.6,100,30.09,4.0,Calm,Calm,-,N/A,,Overcast,0,2013-08-22 11:05:00
6:10 AM,62.6,62.6,100,30.09,2.0,NNW,3.5,-,N/A,,Overcast,340,2013-08-22 11:10:00
6:14 AM,62.6,62.6,100,30.09,0.8,NNW,3.5,-,N/A,,Overcast,340,2013-08-22 11:14:00
6:53 AM,64.9,64.0,97,30.06,0.5,North,3.5,-,0.01,Fog,Fog,350,2013-08-22 11:53:00
7:15 AM,64.4,64.4,100,30.10,1.8,NNE,6.9,-,N/A,,Overcast,30,2013-08-22 12:15:00
7:17 AM,64.4,64.4,100,30.10,2.5,NNE,6.9,-,N/A,,Overcast,30,2013-08-22 12:17:00
7:24 AM,64.4,64.4,100,30.10,7.0,NNE,6.9,-,N/A,,Overcast,30,2013-08-22 12:24:00
7:50 AM,64.4,64.4,100,30.11,10.0,NE,9.2,-,N/A,,Overcast,50,2013-08-22 12:50:00
7:53 AM,64.9,64.0,97,30.08,10.0,NE,8.1,-,N/A,,Overcast,50,2013-08-22 12:53:00
8:46 AM,66.2,64.4,94,30.12,10.0,ENE,6.9,-,N/A,,Overcast,60,2013-08-22 13:46:00
8:53 AM,66.9,64.0,90,30.09,10.0,NE,6.9,-,N/A,,Mostly Cloudy,50,2013-08-22 13:53:00
9:01 AM,68.0,64.4,88,30.13,10.0,NE,5.8,-,N/A,,Scattered Clouds,40,2013-08-22 14:01:00
9:26 AM,68.0,62.6,83,30.14,10.0,NE,8.1,-,N/A,,Mostly Cloudy,40,2013-08-22 14:26:00
9:53 AM,69.1,62.1,78,30.10,10.0,NNE,5.8,-,N/A,,Overcast,30,2013-08-22 14:53:00
10:41 AM,71.6,62.6,73,30.13,10.0,NE,6.9,-,N/A,,Scattered Clouds,40,2013-08-22 15:41:00
10:53 AM,73.0,63.0,71,30.10,10.0,NE,3.5,-,N/A,,Mostly Cloudy,40,2013-08-22 15:53:00
11:05 AM,75.2,62.6,65,30.14,10.0,NE,9.2,-,N/A,,Mostly Cloudy,40,2013-08-22 16:05:00
11:23 AM,75.2,64.4,69,30.14,10.0,NE,9.2,-,N/A,,Scattered Clouds,50,2013-08-22 16:23:00
11:53 AM,75.9,64.0,67,30.10,10.0,NE,6.9,-,N/A,,Clear,50,2013-08-22 16:53:00
12:53 PM,78.1,64.9,64,30.10,10.0,NE,9.2,-,N/A,,Scattered Clouds,40,2013-08-22 17:53:00
1:35 PM,78.8,64.4,61,30.13,10.0,NE,10.4,-,N/A,,Mostly Cloudy,50,2013-08-22 18:35:00
1:53 PM,81.0,64.9,58,30.08,10.0,ENE,11.5,17.3,N/A,,Overcast,60,2013-08-22 18:53:00
2:53 PM,82.0,66.0,58,30.08,10.0,East,8.1,-,N/A,,Mostly Cloudy,100,2013-08-22 19:53:00
3:05 PM,80.6,66.2,61,30.12,10.0,East,8.1,-,N/A,,Scattered Clouds,100,2013-08-22 20:05:00
3:53 PM,81.0,64.9,58,30.08,10.0,SE,8.1,-,N/A,,Mostly Cloudy,140,2013-08-22 20:53:00
4:53 PM,81.0,64.9,58,30.06,10.0,East,8.1,-,N/A,,Mostly Cloudy,100,2013-08-22 21:53:00
5:53 PM,81.0,64.9,58,30.05,10.0,SE,5.8,-,N/A,,Partly Cloudy,130,2013-08-22 22:53:00
6:53 PM,81.0,66.0,60,30.04,10.0,East,6.9,-,N/A,,Scattered Clouds,100,2013-08-22 23:53:00
7:53 PM,78.1,66.0,66,30.03,10.0,ESE,8.1,-,N/A,,Clear,110,2013-08-23 00:53:00
8:53 PM,75.0,66.9,76,30.06,10.0,SE,5.8,-,N/A,,Clear,140,2013-08-23 01:53:00
9:53 PM,70.0,66.0,87,30.07,10.0,SE,4.6,-,N/A,,Clear,130,2013-08-23 02:53:00
10:53 PM,70.0,66.0,87,30.05,10.0,SSE,6.9,-,N/A,,Clear,150,2013-08-23 03:53:00
11:53 PM,69.1,64.9,87,30.05,10.0,SE,8.1,-,N/A,,Clear,140,2013-08-23 04:53:00